Погода в Рогуне

Таджикистан     38°41′45″N   69°44′48″E
темп.,
°C
ветер,
м/с
пор.,
м/с
влажн.,
%
обл.,
%
осадки,
мм/ч
давл.,
гПа
погр.,
м
24 января, пн
пн2423:00−16с338315 0.0 103515
02:00−16с33815 0.0 103618
05:00−17с33814 0.0 103720
08:00−17с33822 0.0 103826
11:00−10св34781 0.0 1033147
14:00−6св33750 0.0 1027194
17:00−10с32834 0.0 102916
20:00−15с337274 0.0 103418
25 января, вт
вт2523:00−16с3370100 0.0 103522
02:00−16с337099 0.0 103624
05:00−17с436729 0.0 103623
08:00−18с43662 0.0 103824
11:00−10св33650 0.0 1032123
14:00−6св22620 0.0 1027154
17:00−11с32750 0.0 103011
20:00−15ссз33640 0.0 103715
26 января, ср
ср2623:00−16с33670 0.0 103916
02:00−17с33700 0.0 104020
05:00−18с33710 0.0 104124
08:00−18с33740 0.0 104329
11:00−11св34690 0.0 1037141
14:00−7св33670 0.0 1032180
17:00−10с33802 0.0 103418
20:00−15с43720 0.0 103922
27 января, чт
чт2723:00−16с43720 0.0 104026
02:00−18ссв43730 0.0 104130
05:00−18ссв43730 0.0 104233
08:00−18ссв44730 0.0 104238
11:00−11св44680 0.0 1036137
14:00−6св34660 0.0 1030166
17:00−9ссв33770 0.0 103026
20:00−14с43670 0.0 103524
28 января, пт
пт2823:00−14с436571 0.0 103528
02:00−12ссв447097 0.0 103252
05:00−12ссв4475100 0.0 103044
08:00−8св3476100 0.3 102674
11:00−4ссв3382100 1.8 1023116
14:00−3св3496100 4.5 1020235
17:00−3св1297100 9.1 1021125
20:00−3ссв0198100 3.7 102347